Regional Weather Roundup
Issued by NWS

Home | Current Version | Previous Version | Graphics & Text | Print | Product List | Glossary On
Versions: 1 2 3 4 5 6 7 8 9 10 11 12 13 14 15 16 17 18 19 20 21 22 23 24 25 26 27 28 29 30 31 32 33 34 35 36 37 38 39 40 41 42 43 44 45 46 47 48 49 50
198
ASUS43 KMKX 250010
RWRWI

WISCONSIN REGIONAL WEATHER ROUNDUP
NATIONAL WEATHER SERVICE MILWAUKEE/SULLIVAN WI
700 PM CDT WED MAY 24 2017

NOTE: "FAIR" INDICATES FEW OR NO CLOUDS BELOW 12,000 FEET WITH NO
SIGNIFICANT WEATHER AND/OR OBSTRUCTIONS TO VISIBILITY.

WIZ001-002-006>008-014>016-023>028-250100-
NORTHWEST WISCONSIN

CITY           SKY/WX    TMP DP  RH WIND       PRES   REMARKS
SUPERIOR ARPT  NOT AVBL
ASHLAND        CLOUDY    49  41  74 NE8       29.76F
6HR MIN TEMP:  48; 6HR MAX TEMP:  57;

HAYWARD        PTSUNNY   58  44  60 NE12      29.72S
6HR MIN TEMP:  58; 6HR MAX TEMP:  61;

SIREN          CLOUDY    59  42  53 CALM      29.71F
6HR MIN TEMP:  57; 6HR MAX TEMP:  60;

CUMBERLAND     CLOUDY    55  45  67 NE6       29.71S
RICE LAKE      CLOUDY    59  47  64 NE7       29.71S
6HR MIN TEMP:  57; 6HR MAX TEMP:  60;

CHETEK         CLOUDY    59  48  66 E6        29.70S
6HR MIN TEMP:  57; 6HR MAX TEMP:  62;

LADYSMITH      CLOUDY    57  47  69 E6        29.73S
6HR MIN TEMP:  56; 6HR MAX TEMP:  60;

EAU CLAIRE     CLOUDY    59  47  64 E12       29.68S
6HR MIN TEMP:  59; 6HR MAX TEMP:  66;

MENOMONIE      CLOUDY    60  48  65 E5        29.69S
6HR MIN TEMP:  58; 6HR MAX TEMP:  62; 6HR PCP:  0.01;

NEW RICHMOND   MOSUNNY   60  44  54 E3        29.70S
6HR MIN TEMP:  56; 6HR MAX TEMP:  60;

OSCEOLA        CLOUDY    60  44  55 NE6       29.73S
6HR MIN TEMP:  57; 6HR MAX TEMP:  61;

$$

WIZ003>005-009-010-017-018-250100-
NORTH CENTRAL WISCONSIN

CITY           SKY/WX    TMP DP  RH WIND       PRES   REMARKS
MANITOWISH WTR CLOUDY    53  48  83 N5        29.73S
6HR MIN TEMP:  50; 6HR MAX TEMP:  55;

ARBOR VITAE    MOSUNNY   57  49  75 NE6       29.72S
6HR MIN TEMP:  52; 6HR MAX TEMP:  57;

WOODRUFF       MOSUNNY   57  49  75 NE6       29.72S
6HR MIN TEMP:  52; 6HR MAX TEMP:  57;

RHINELANDER    CLOUDY    56  48  74 E5        29.72R
6HR MIN TEMP:  51; 6HR MAX TEMP:  57;

EAGLE RIVER    CLOUDY    53  45  76 NE5       29.73R
6HR MIN TEMP:  49; 6HR MAX TEMP:  53;

LAND O LAKES   CLOUDY    55  46  72 NE5       29.74S
6HR MIN TEMP:  49; 6HR MAX TEMP:  56;

PHILLIPS       CLOUDY    55  47  76 NE7       29.72S
6HR MIN TEMP:  53; 6HR MAX TEMP:  56;

TOMAHAWK       CLOUDY    54  47  76 N3        29.72S
6HR MIN TEMP:  49; 6HR MAX TEMP:  55;

MEDFORD        CLOUDY    54  48  80 N6        29.70S
6HR MIN TEMP:  51; 6HR MAX TEMP:  54;

MERRILL        CLOUDY    56  49  78 NE8       29.71R
6HR MIN TEMP:  51; 6HR MAX TEMP:  57;

$$

WIZ029-030-035-036-043>047-250100-
CENTRAL WISCONSIN

CITY           SKY/WX    TMP DP  RH WIND       PRES   REMARKS
WAUSAU         CLOUDY    55  49  80 E7        29.69R
6HR MIN TEMP:  52; 6HR MAX TEMP:  56;

MOSINEE        CLOUDY    54  52  94 E6        29.71R
MARSHFIELD     CLOUDY    54  49  83 E7        29.69R
6HR MIN TEMP:  53; 6HR MAX TEMP:  55;

STEVENS POINT  CLOUDY    52  50  93 NE5       29.71R
6HR MIN TEMP:  50; 6HR MAX TEMP:  52;

WAUPACA        CLOUDY    55  50  82 N7        29.70R
6HR MIN TEMP:  54; 6HR MAX TEMP:  56;

WAUTOMA        CLOUDY    54  50  87 N7        29.70R
6HR MIN TEMP:  53; 6HR MAX TEMP:  55;

WISC RAPIDS    CLOUDY    54  50  86 E7        29.71R
6HR MIN TEMP:  54; 6HR MAX TEMP:  56;

CAMP DOUGLAS   CLOUDY    55  52  88 NE6       29.69R
$$

WIZ011>013-019>022-031-037>040-048>050-250100-
NORTHEAST WISCONSIN

CITY           SKY/WX    TMP DP  RH WIND       PRES   REMARKS
ANTIGO         CLOUDY    53  49  85 E7        29.71S
6HR MIN TEMP:  50; 6HR MAX TEMP:  55;

SHAWANO        CLOUDY    56  51  82 NE10      29.71R
6HR MIN TEMP:  53; 6HR MAX TEMP:  56;

OCONTO         CLOUDY    53  49  85 NE8       29.70R
6HR MIN TEMP:  50; 6HR MAX TEMP:  55;

STURGEON BAY   CLOUDY    52  49  89 NE12      29.69S
6HR MIN TEMP:  50; 6HR MAX TEMP:  54;

GREEN BAY      CLOUDY    54  52  93 N16       29.68S
6HR MIN TEMP:  51; 6HR MAX TEMP:  54;

MANITOWOC      PTSUNNY   54  50  86 N12       29.66R
6HR MIN TEMP:  50; 6HR MAX TEMP:  56; 6HR PCP: TRACE;

APPLETON       CLOUDY    54  52  94 N12       29.67R
CLINTONVILLE   CLOUDY    54  50  87 NE9       29.70R
OSHKOSH        CLOUDY    54  50  86 N13       29.66S
6HR MIN TEMP:  52; 6HR MAX TEMP:  56;

$$

WIZ032>034-041-042-053>061-250100-
SOUTHWEST WISCONSIN

CITY           SKY/WX    TMP DP  RH WIND       PRES   REMARKS
LA CROSSE      CLOUDY    60  49  66 NE6       29.68R
6HR MIN TEMP:  58; 6HR MAX TEMP:  62;

SPARTA         CLOUDY    56  51  84 N3        29.70R
6HR MIN TEMP:  53; 6HR MAX TEMP:  56;

VIROQUA        CLOUDY    55  50  83 MISG      29.68S
6HR MIN TEMP:  51; 6HR MAX TEMP:  56;

BOSCOBEL       CLOUDY    59  50  72 NE3       29.67S
6HR MIN TEMP:  57; 6HR MAX TEMP:  60;

PRAIRIE DU CHI CLOUDY    58  48  69 N7        29.66S
6HR MIN TEMP:  55; 6HR MAX TEMP:  59;

PLATTEVILLE    CLOUDY    57  54  89 N10       29.65F
6HR MIN TEMP:  56; 6HR MAX TEMP:  58;

$$

WIZ056-057-062-063-064-067-068-250100-
SOUTH CENTRAL WISCONSIN

CITY           SKY/WX    TMP DP  RH WIND       PRES   REMARKS
REEDSBURG      CLOUDY    55  52  91 N7        29.67S
6HR MIN TEMP:  53; 6HR MAX TEMP:  56;

BARABOO/DELLS  CLOUDY    55  49  81 NE8       29.68R
6HR MIN TEMP:  52; 6HR MAX TEMP:  56;

LONE ROCK      CLOUDY    58  50  75 VRB6      29.66S
6HR MIN TEMP:  56; 6HR MAX TEMP:  59;

MINERAL POINT  CLOUDY    57  54  88 N12       29.65S
MADISON        CLOUDY    55  51  86 N8        29.64S
6HR MIN TEMP:  53; 6HR MAX TEMP:  56;

MIDDLETON      CLOUDY    56  52  84 N7        29.66S
6HR MIN TEMP:  54; 6HR MAX TEMP:  56;

WATERTOWN      CLOUDY    56  53  91 N10G16    29.63S
6HR MIN TEMP:  54; 6HR MAX TEMP:  59;

MONROE         CLOUDY    54  50  87 N12G17    29.63S
JANESVILLE     CLOUDY    57  54  88 N9G16     29.61S
$$

WIZ051-052-058>065-066-070>072-250100-
SOUTHEAST WISCONSIN

CITY           SKY/WX    TMP DP  RH WIND       PRES   REMARKS
MILWAUKEE      CLOUDY    58  50  75 N18G29    29.60S
6HR MIN TEMP:  54; 6HR MAX TEMP:  59;

WAUKESHA       PTSUNNY   57  48  72 N12       29.62S
MILWAUKEE/TIMM MOSUNNY   59  48  67 N16       29.61S
RACINE         CLOUDY    53  48  83 N22G32    29.61R
6HR MIN TEMP:  53; 6HR MAX TEMP:  57;

KENOSHA        PTSUNNY   58  49  72 N15G25    29.59R
6HR MIN TEMP:  57; 6HR MAX TEMP:  62;

FOND DU LAC    CLOUDY    54  48  80 N13       29.66S
6HR MIN TEMP:  54; 6HR MAX TEMP:  59;

SHEBOYGAN      CLOUDY    56  53  90 N8        29.63S
6HR MIN TEMP:  51; 6HR MAX TEMP:  58;

WEST BEND      CLOUDY    55  52  88 N9        29.63S
JUNEAU         CLOUDY    53  49  89 N12G18    29.65S
6HR MIN TEMP:  53; 6HR MAX TEMP:  57;

$$

LSZ147-162-250100-
LAKE SUPERIOR

STATION/POSITION TIME  TEMP    WIND        PRES    WAVE
                       AIR SEA DIR/SP/G            HT/PER
                 (UTC) (F)     (DEG/KT/KT) (MB)    (FT/S)
$$

LMZ867-665-643>646-250100-
LAKE MICHIGAN

STATION/POSITION TIME  TEMP    WIND        PRES    WAVE
                       AIR SEA DIR/SP/G            HT/PER
                 (UTC) (F)     (DEG/KT/KT) (MB)    (FT/S)
$$

TC  - TEMPERATURE IN CELSIUS
VSB - VISIBILITY IN STATUTE MILES
WCI - WIND CHILL INDEX
HX  - HEAT INDEX





USA.gov is the U.S. government's official web portal to all federal, state and local government web resources and services.